Location: *
(36.3044°S, 150.2089°W)
Time: 21:01:42
(UTC+00:00)

Daily predictions for brighter satellites

Satellite Brightness Start Highest point End
(mag) Time Altitude Azimuth Time Altitude Azimuth Time Altitude Azimuth
Cosmos 1980 Rocket 2.1 12:07:38 70° NNE 12:08:13 78° ENE 12:13:53 10° SSE
SL-4 R/B 4.5 12:07:31 10° SSW 12:10:32 20° SSE 12:13:24 10° ESE
Cosmos 1461 3.5 12:13:25 51° SSW 12:13:25 51° SSW 12:16:47 10° SSE
CZ-2C R/B 2.8 12:09:06 10° SSE 12:14:41 70° ENE 12:15:44 56° NNE
Cosmos 1190 Rocket 4.0 12:13:43 10° SSW 12:19:06 85° ESE 12:20:17 56° NNE
Cosmos 1536 4.1 12:16:03 10° SSE 12:19:32 32° E 12:20:12 30° E
Cosmos 2219 4.4 12:17:21 10° S 12:22:50 42° ESE 12:28:15 10° NE
Okean 1 3.6 12:23:49 58° SSE 12:23:49 58° SSE 12:26:57 10° S
Cosmos 2221 3.1 12:24:58 46° SW 12:24:58 46° SW 12:28:30 10° S
ATLAS 3B R/B 3.5 12:19:31 10° SW 12:23:26 29° W 12:23:26 29° W
Cosmos 1842 Rocket 4.4 12:25:44 38° NE 12:26:41 45° E 12:30:58 10° SSE
CRYOSAT 2 4.5 12:24:16 10° S 12:29:14 73° E 12:30:19 53° NNE
Meteor 2-15 4.4 12:23:46 10° SSW 12:29:54 67° W 12:31:24 50° NNW
Cosmos 1371 Rocket 4.4 12:30:32 44° W 12:31:00 46° WSW 12:36:03 10° S
Tiangong -0.4 12:33:03 31° S 12:33:21 32° S 12:36:21 10° ESE
USA 229 DEB 3.5 12:28:06 10° SW 12:34:08 49° WNW 12:34:25 49° NW
USA 229 3.5 12:28:09 10° SW 12:34:14 50° WNW 12:34:35 49° NW
NOAA 11 4.2 12:34:09 54° NW 12:34:56 59° W 12:40:25 10° SSW
MOZ.5/SAFIR/RUBIN 5/SL-8 3.9 12:30:54 10° SSE 12:35:42 72° ENE 12:36:46 52° NNE
Cosmos 2251 Rocket 4.0 12:33:24 10° SSW 12:38:06 41° W 12:38:06 41° W
Cosmos 972 Rocket 4.3 12:33:46 10° SSW 12:39:38 78° WNW 12:42:55 31° N
ADEOS II 3.4 12:40:54 25° W 12:40:54 25° W 12:44:24 10° SW
Resurs 1-4 Rocket 4.0 12:41:29 15° WSW 12:41:29 15° WSW 12:43:17 10° SW
Cosmos 1452 Rocket 3.9 12:40:53 37° NNE 12:42:48 59° ENE 12:48:01 10° SSE
Cosmos 1605 Rocket 4.4 12:39:13 10° SSW 12:45:07 44° W 12:46:27 39° WNW
Cosmos 2322 Rocket 4.3 12:44:09 10° NE 12:48:06 20° E 12:52:05 10° SE
BlueWalker 3 2.4 12:48:17 46° SW 12:48:30 46° SW 12:52:10 10° SE
SJ 16-02 3.3 12:47:00 10° S 12:50:48 28° ESE 12:54:34 10° NE
H-2A R/B 2.5 12:47:10 12° NNE 12:52:02 62° ESE 12:57:13 10° S
Cosmos 1727 Rocket 4.1 12:51:05 39° NW 12:53:22 60° W 12:59:42 10° S
SL-16 R/B 3.2 12:51:51 20° NNE 12:55:19 39° ENE 13:00:35 10° SE
Meteor 1-19 Rocket 4.1 12:54:03 35° N 12:56:25 88° E 13:01:55 10° S
Cosmos 1331 Rocket 4.0 12:54:44 39° N 12:56:46 84° ENE 13:02:07 10° SSE
USA 305 4.4 12:56:48 18° SW 12:57:42 20° SSW 13:00:36 10° SSE
Cosmos 1805 3.5 12:54:17 10° S 12:57:52 59° E 12:59:12 34° NNE
Meteor 2-19 Rocket 4.4 12:55:19 33° NNW 12:58:16 80° W 13:04:31 10° S
BREEZE-M DEB (TANK) 2.3 12:58:32 73° W 12:58:47 84° SSW 13:01:54 10° ESE
Cosmos 676 Rocket 4.0 12:55:27 10° SSW 13:00:47 67° WNW 13:03:41 27° N
ALOS 4.0 13:02:48 17° WSW 13:02:48 17° WSW 13:04:51 10° SW
Cosmos 2369 4.1 13:04:39 33° WNW 13:06:51 51° WSW 13:12:27 10° S
Envisat 4.0 13:09:37 27° W 13:09:46 27° W 13:14:06 10° SW
Meteor 1-11 Rocket 3.8 13:04:32 10° S 13:10:35 86° W 13:15:56 13° N
CZ-4 R/B 4.0 13:06:41 12° NNE 13:11:15 82° ESE 13:16:20 10° S
Meteor 1-27 Rocket 3.8 13:08:35 27° NNW 13:11:59 83° W 13:17:59 10° S
Cosmos 1975 4.3 13:11:31 10° SSE 13:15:05 35° E 13:18:37 10° NNE
Cosmos 1459 Rocket 3.9 13:08:57 10° S 13:15:17 81° W 13:20:57 12° N
USA 59 Rocket 2.2 13:09:49 10° SW 13:16:50 28° WNW 13:18:36 25° NW
Cosmos 1346 Rocket 2.6 13:14:49 10° S 13:18:38 86° E 13:21:06 21° N
Cosmos 1939 Rocket 4.5 13:16:16 10° NE 13:19:39 32° ESE 13:23:03 10° S
OAO 3 Rocket 3.1 13:17:57 23° W 13:20:55 69° N 13:25:46 10° ENE
Cosmos 2263 Rocket 2.2 13:15:54 10° SSW 13:21:35 66° WNW 13:27:12 10° N
Cosmos 2237 4.2 13:19:15 25° NNW 13:22:43 87° WSW 13:28:30 10° SSE
Cosmos 2084 3.3 13:22:46 34° NW 13:24:27 77° WSW 13:28:45 10° SSE
USA 215 3.7 13:22:00 10° SE 13:28:24 53° SW 13:33:15 18° WNW
Cosmos 1408 Rocket 3.7 13:24:51 10° S 13:29:15 77° E 13:33:37 10° N
CZ-2C R/B 2.6 13:27:34 25° NNW 13:29:48 43° W 13:34:17 10° SSW
USA 276 3.3 13:28:31 10° SW 13:31:17 38° SSE 13:33:52 10° ENE
Cosmos 2123 Rocket 4.1 13:28:31 20° NNW 13:32:48 60° W 13:38:58 10° S
Cosmos 1356 Rocket 3.4 13:32:03 28° NW 13:33:54 55° W 13:37:48 10° S
YAOGAN 6 2.3 13:34:51 36° NW 13:35:34 45° W 13:38:28 10° SSW
Cosmos 1725 Rocket 4.0 13:30:15 10° S 13:36:37 85° W 13:42:52 10° N
Skynet4D Del rocket 4.5 13:36:28 22° NW 13:39:10 32° N 13:43:59 10° ENE
USA 306 3.9 13:40:54 10° SW 13:40:54 10° SW 13:40:58 10° SW
SL-12 R/B(2) 4.0 13:35:59 10° SW 13:43:57 64° WNW 13:51:08 10° NNE
Cosmos 1805 Rocket 3.6 13:40:01 10° S 13:44:24 80° E 13:48:43 10° N
SL-19 R/B 4.0 13:42:20 10° NNE 13:45:09 63° ESE 13:48:13 10° S
Meteor 1-18 Rocket 4.5 13:42:15 10° N 13:47:57 73° E 13:53:38 10° SSE
USA 307 3.3 13:47:23 19° WSW 13:48:32 26° SW 13:51:12 10° SSE
Cosmos 2227 Rocket 3.8 13:45:44 10° WSW 13:48:45 15° W 13:49:19 14° WNW
SL-4 R/B 1.6 13:45:21 10° SW 13:49:07 62° NW 13:52:38 10° NE
SL-16 R/B 3.0 13:43:12 10° SSE 13:49:22 60° ENE 13:55:26 10° N
IRAS Rocket 4.3 13:46:32 10° NNE 13:52:03 85° ESE 13:57:37 10° SSW
Cosmos 1844 Rocket 4.1 13:47:05 10° S 13:52:32 43° ESE 13:57:54 10° NE
Cosmos 1980 Rocket 4.2 13:49:46 10° W 13:52:49 15° SW 13:55:54 10° SSW
Cosmos 1607 4.3 13:49:00 17° NW 13:53:36 51° SW 13:59:39 10° SSE
Cosmos 1674 3.3 13:56:30 19° WNW 13:57:54 27° WSW 14:00:39 10° SSW
Cosmos 2278 4.1 13:56:30 15° NW 14:01:03 48° WSW 14:06:35 10° S
Cosmos 1315 Rocket 3.0 13:58:33 14° NNW 14:01:40 47° W 14:05:25 10° S
Cosmos 1766 2.9 14:00:07 10° S 14:03:44 75° W 14:07:18 10° N
Cosmos 1500 Rocket 3.8 14:01:10 10° SSW 14:05:32 50° W 14:09:47 10° NNW
Cosmos 2219 4.3 14:02:05 10° SW 14:06:39 24° W 14:11:09 10° NNW
Meteor 1-28 Rocket 3.0 14:03:41 10° S 14:07:09 63° WSW 14:10:35 10° NNW
RUBIN 8/PSLV 4.5 14:05:02 10° N 14:09:14 72° WNW 14:13:31 10° SSW
Cosmos 1484 Rocket 2.5 14:06:57 10° NNE 14:10:32 90° N 14:14:08 10° SSW
Tiangong -1.9 14:07:24 10° WSW 14:10:40 77° SSE 14:13:55 10° ENE
Cosmos 1741 Rocket 4.5 14:07:14 10° SSW 14:12:11 41° WNW 14:17:07 10° N
Cosmos 2333 Rocket 2.3 14:07:03 10° NNW 14:12:49 87° WSW 14:18:40 10° SSE
Thor Agena Rocket 3.7 14:13:54 10° N 14:19:06 58° W 14:24:22 10° SSW
ARIANE 5 R/B 4.3 14:15:32 10° NE 14:20:05 36° ESE 14:24:41 10° S
NOAA 12 4.4 14:15:05 10° NNE 14:20:22 79° ESE 14:25:45 10° S
Cosmos 1666 Rocket 4.2 14:16:44 10° S 14:21:12 61° E 14:25:34 10° NNE
Cosmos 2285 Rocket 4.3 14:15:31 10° SSW 14:21:53 74° ESE 14:28:13 10° NNE
Cosmos 1908 3.0 14:18:52 10° S 14:22:19 80° E 14:25:42 10° N
SL-24 DEB 4.2 14:18:58 10° S 14:23:34 66° W 14:28:04 10° NNW
KORONAS-FOTON 4.3 14:20:45 10° NNW 14:24:01 35° W 14:27:21 10° SSW
Cosmos 371 Rocket 3.3 14:23:15 10° SSW 14:28:06 77° WNW 14:32:55 10° NNE
Cosmos 1844 4.0 14:22:29 10° SSW 14:28:07 76° ESE 14:33:42 10° NNE
SJ 16-02 2.6 14:25:34 10° SW 14:28:49 21° W 14:32:03 10° NW
Helios 1A Rocket 4.3 14:26:05 10° SSW 14:28:53 20° WSW 14:31:39 10° WNW
SL-08 RB Rocket 4.0 14:26:02 10° N 14:30:21 46° W 14:34:47 10° SSW
Cosmos 2322 Rocket 2.6 14:26:06 10° NW 14:31:39 51° WSW 14:37:15 10° S
